Sabung Ayam Online
Tembak Ikan Online

Jackpot

Texas Poker Multi Jackpot System

Kini Telah hadir Jackpot SUPER ROYAL FLUSH

Kini Telah hadir Jackpot 2000 (khusus table VIP keatas).

Ikutilah global jackpot yang tersedia di system kami, dengan system jackpot terbaru dan pertama di indonesia, anda dapat membeli jackpot dengan harga 100 rupiah saja dan menangkan hadiahnya hingga puluhan juta rupiah.

Jackpot bukanlah suatu keharusan untuk dibeli, namun kami memberikan suatu fitur tambahan untuk member tercinta dari www.luckycapsa77.com.

Terdapat tiga pilihan harga jackpot yang bisa anda beli yaitu :100,500,1000 dan 2000(khusus table VIP Keatas) rupiah.

Hadiah dari Multi jackpot system www.luckycapsa77.com

  1. full house x 10 harga jackpot yang anda beli.
      (contoh:anda membeli 1000 maka:1000 X10 = 10.000)
  2. four of kind x 250 harga jackpot yang anda beli
      (contoh:anda membeli 1000 maka:1000 X250 = 250.000)
  3. Straight flush x 1200
      (contoh:anda membeli 1000 maka:1000 X1200 = 1.200.000)
  4. Royal flush x 10000 harga jackpot yang anda beli
      (contoh:anda membeli 1000 maka:1000 X10000 = 10.000.000)
  5. SUPER ROYAL FLUSH x 30000 harga jackpot yang anda beli
      (contoh:anda membeli 1000 maka:1000 X30000 = 30.000.000)

Kondisi kartu

  1. full house adalah kondisi kartu dimana kartu anda dan kartu tengah dengan total 7 kartu bisa mendapatkan nilai 5 kartu dengan kombinasi 1 tris(three of kind) dan 1 pair, contoh 3 kartu 10 dan 2 kartu 5
  2. Four of kind adalah kondisi kartu dimana kartu anda dan kartu tengah dengan total 7 kartu bisa mendapatkan nilai 5 kartu dengan kombinasi 4 kartu yang sama jumlah dan 1 kartu apapun juga contoh anda mendapatkan 4 buah kartu angka 3 dan 1 kartu apapun.
  3. Staright flush adalah kondisi kartu dimana kartu anda dan kartu tengah dengan total 7 kartu bisa mendapatkan nilai 5 kartu dengan kombinasi seri / staright dengan kembang yang sama contoh : urutan kartu dari angka 5, 6, 7, 8 , 9 10 dengan kembang yg sama misalnya as hati
  4. Royal flush adalah kondisi kartu dimana kartu anda dan kartu tengah dengan total 7 kartu bisa mendapatkan nilai 5 kartu dengan kombinasi seri / staright dengan kembang yang sama tetapi kartu tersebut haruslah dimulai dari 10. contoh 10, Queen, Jack, King dan aces dengan kembang yang sama
  5. Super Royal flush adalah kondisi kartu dimana Kedua kartu anda digabung dengan 3 kartu pertama meja haruslah royal flush. contoh kartu anda 10,Queen kembang sama dan 3 kartu pertama meja adalah Jack, King dan aces dengan kembang yang sama

Demikian adalah penjelasan dari Multi Jackpot www.luckycapsa77.com terima kasih dan selamat bermain salam hoki dari kami

Texas Poker Jackpot Winner

TOP SUPER ROYAL FLUSH
No.TanggalNamaPriceWin
121/07 23:05MANGKARMANSuper Royal flush6,000,000
221/07 22:49RASUL880Super Royal flush3,000,000
321/07 16:17REY345189Super Royal flush15,000,000
421/07 07:22AL_AID4NSuper Royal flush30,000,000
521/07 02:20YOKOKLENSuper Royal flush1,500,000
TOP ROYAL FLUSH
No.TanggalNamaPriceWin
122/07 01:51ALVA02Royal flush1,000,000
222/07 01:47CHUCKJUSRoyal flush2,000,000
322/07 01:46BAGAS1511Royal flush2,000,000
422/07 01:37DISTRA88Royal flush2,000,000
522/07 01:37B0D3CSRoyal flush2,000,000
TOP STRAIGHT FLUSH
No.TanggalNamaPriceWin
122/07 01:51HINOLOHANStraight Flush600,000
222/07 01:49RONY940182Straight Flush1,200,000
322/07 01:48HAYUT01Straight Flush1,200,000
422/07 01:48RAJOPROKPStraight Flush120,000
522/07 01:47NYOLAPStraight Flush1,200,000
LATEST JACKPOT
No.TanggalNamaPriceWin
122/07 01:52ZERO89Full House5,000
222/07 01:52SANTOO88Full House5,000
322/07 01:52MARJATFull House5,000
422/07 01:52GHKCFull House2,000
522/07 01:52AADRBFAD25Full House1,000
622/07 01:52PHAMVINHFull House10,000
722/07 01:52NAFDALOV21Full House5,000
822/07 01:52NOGOBIRUFull House5,000
922/07 01:52TERPOTER99Full House10,000
1022/07 01:52CF31B1E4Full House10,000
1122/07 01:52GREETZ26Full House5,000
1222/07 01:52SIRI555Full House5,000
1322/07 01:52MR_CONANFull House1,000
1422/07 01:52GIBRANAA25Full House2,000
1522/07 01:52JAMAN_NAOFull House2,000
1622/07 01:52DWTDODO00Full House2,000
1722/07 01:52BEBASKANLAFull House5,000
1822/07 01:52TOTO618Full House1,000
1922/07 01:52SMGVV287IGFull House2,000
2022/07 01:52BGBELTAM12Full House1,000
2122/07 01:52SITAA007Full House1,000
2222/07 01:52UMAR_83Full House2,000
2322/07 01:52GERMIFull House1,000
2422/07 01:52URTXCWNTGFull House2,000
2522/07 01:52PANSER77Full House5,000
2622/07 01:52PAPAT12Full House1,000
2722/07 01:52WANI10JPFull House10,000
2822/07 01:52BANDULAN1TFull House20,000
2922/07 01:52MCHFull House2,000
3022/07 01:52GRAB1921Full House1,000
3122/07 01:52TUMPAK2611Full House5,000
3222/07 01:52RAMPAS08Four Of A Kind125,000
3322/07 01:52D7F2EA89Full House2,000
3422/07 01:52CIRAXXX87Full House5,000
3522/07 01:52NLK7BLXRG0Full House5,000
3622/07 01:52KH09Full House10,000
3722/07 01:52DAFA104Full House5,000
3822/07 01:52BIGGBOSZFull House1,000
3922/07 01:52MALAWADINGFull House10,000
4022/07 01:52GILANGAJHFull House2,000
4122/07 01:52BH4GON9355Four Of A Kind250,000
4222/07 01:52BOMMMMMMMFull House2,000
4322/07 01:52QOOQOOFull House2,000
4422/07 01:52DAYAT1234Full House2,000
4522/07 01:52CHYA77Four Of A Kind25,000
4622/07 01:52NDY_009Full House10,000
4722/07 01:52KING9923Full House10,000
4822/07 01:52WIKISNFull House5,000
4922/07 01:52SURI398Full House10,000
5022/07 01:52NEWA26Full House1,000

Domino Multi Jackpot System

Ikutilah global jackpot yang tersedia di system kami, dengan system jackpot terbaru dan pertama di indonesia, anda dapat membeli jackpot dengan harga 100 rupiah saja dan menangkan hadiahnya hingga puluhan juta rupiah.

Jackpot bukanlah suatu keharusan untuk dibeli, namun kami memberikan suatu fitur tambahan untuk member tercinta dari www.luckycapsa77.com.

Terdapat tiga pilihan harga jackpot yang bisa anda beli yaitu :100,500 dan 1000 rupiah.

Hadiah dari Multi jackpot system www.luckycapsa77.com

  1. Murni Kecil x 50 harga jackpot yang anda beli.
      (contoh:anda membeli 1000 maka:1000 X 50 = 50.000)
  2. Murni Besar x 50 harga jackpot yang anda beli
      (contoh:anda membeli 1000 maka:1000 X 50 = 50.000)
  3. BALAK x 100 harga jackpot yang anda beli
      (contoh:anda membeli 1000 maka:1000 X 100 = 100.000)
  4. ENAM DEWA x 6666 harga jackpot yang anda beli
      (contoh:anda membeli 1000 maka:1000 X 6666 = 6.666.000)

Demikian adalah penjelasan dari Multi Jackpot www.luckycapsa77.com terima kasih dan selamat bermain salam hoki dari kami

Domino Jackpot Winner

TOP ENAM DEWA
No.TanggalNamaPriceWin
122/07 01:39AMSAH2606murni enam3,333,000
222/07 01:11VIN703murni enam3,333,000
322/07 01:06HHB28murni enam3,333,000
422/07 00:33ROJACKSEmurni enam6,666,000
522/07 00:14ROBERTA79murni enam6,666,000
TOP BALAK
No.TanggalNamaPriceWin
122/07 01:52AMRI06balak10,000
222/07 01:51TOYOK81balak100,000
322/07 01:51AANSUKARbalak100,000
422/07 01:50KEMENER86balak100,000
522/07 01:48TETANUSEKEbalak50,000
LATEST JACKPOT
No.TanggalNamaPriceWin
122/07 01:52DESYY44murni kecil25,000
222/07 01:52AMRI06balak10,000
322/07 01:52TEMPE444murni besar5,000
422/07 01:51TOYOK81balak100,000
522/07 01:51AANSUKARbalak100,000
622/07 01:50KEMENER86balak100,000
722/07 01:50ALISSA21murni besar5,000
822/07 01:50T4DIPAGImurni kecil25,000
922/07 01:50BORAXSmurni kecil25,000
1022/07 01:49PARISMEDANmurni besar5,000
1122/07 01:49D99DE4FBmurni besar25,000
1222/07 01:49ITR11murni kecil50,000
1322/07 01:49MALIH3232murni besar50,000
1422/07 01:48ALDI0107murni kecil25,000
1522/07 01:48TETANUSEKEbalak50,000
1622/07 01:48IW4N98balak10,000
1722/07 01:48BEIBYSEXY9murni besar50,000
1822/07 01:48HAJI_ABASmurni besar50,000
1922/07 01:47JAEWOYO55lucky9925,000
2022/07 01:47FOZANTCmurni besar5,000
2122/07 01:47ATH2ZLDADHmurni kecil5,000
2222/07 01:46T4DMERCON99murni kecil50,000
2322/07 01:46TAMI012murni kecil25,000
2422/07 01:46S4HIRmurni kecil25,000
2522/07 01:46MRS84murni kecil50,000
2622/07 01:46GIRIAP17murni besar50,000
2722/07 01:46SJPOKER035balak10,000
2822/07 01:46RATNA_59murni kecil25,000
2922/07 01:45TAPP87murni besar50,000
3022/07 01:45SOEJOENGCImurni kecil5,000
3122/07 01:45ALDI0107lucky992,500
3222/07 01:44JUN121murni kecil50,000
3322/07 01:44SOEX46balak100,000
3422/07 01:44DHONMAXmurni besar50,000
3522/07 01:44TRA19murni kecil25,000
3622/07 01:44WS2D2ODWU3lucky99200,000
3722/07 01:44BUINGGG464murni besar50,000
3822/07 01:43DIYYASmurni kecil50,000
3922/07 01:43DESIWAYmurni kecil5,000
4022/07 01:43J3NGK0L1Nmurni besar25,000
4122/07 01:43JUHRONmurni kecil50,000
4222/07 01:43JUN121balak100,000
4322/07 01:43ZINO9999murni kecil25,000
4422/07 01:43F534910Bmurni besar50,000
4522/07 01:43BLACK_18murni kecil25,000
4622/07 01:42M8G81J3S5Omurni kecil25,000
4722/07 01:42PUNK12murni besar50,000
4822/07 01:42AANKAC6656murni kecil50,000
4922/07 01:42MBAHOO_99murni kecil50,000
5022/07 01:42AAN199222balak100,000

Ceme Multi Jackpot System

Jackpot dilihat dari gabungan kartu pemain dengan kartu bandar. Bandar harus membeli jackpot sebanyak jumlah player yang sedang duduk. Sebagai contoh bila terdapat 3 pemain duduk bermain, dan bandar memutuskan untuk membeli jackpot Rp 1.000, maka pada periode tersebut bandar akan membeli jackpot sebanyak 3xRp1.000 = Rp3.000.

Jackpot bukanlah suatu keharusan untuk dibeli, namun kami memberikan suatu fitur tambahan untuk member tercinta dari www.luckycapsa77.com.

Terdapat tiga pilihan harga jackpot yang bisa anda beli yaitu :100,500 dan 1000 rupiah.

Hadiah dari Multi jackpot system www.luckycapsa77.com

  1. Murni Kecil x 50 harga jackpot yang anda beli.
      (contoh:anda membeli 1000 maka:1000 X 50 = 50.000)
  2. Murni Besar x 50 harga jackpot yang anda beli
      (contoh:anda membeli 1000 maka:1000 X 50 = 50.000)
  3. BALAK x 200 harga jackpot yang anda beli
      (contoh:anda membeli 1000 maka:1000 X 200 = 200.000)
  4. ENAM DEWA x 6666 harga jackpot yang anda beli
      (contoh:anda membeli 1000 maka:1000 X 6666 = 6.666.000)

Demikian adalah penjelasan dari Multi Jackpot www.luckycapsa77.com terima kasih dan selamat bermain salam hoki dari kami

Ceme Jackpot Winner

TOP ENAM DEWA
No.TanggalNamaPriceWin
122/07 01:49NIKEVmurni enam6,666,000
222/07 01:49XILLIENSmurni enam6,666,000
322/07 01:47MILUS198murni enam6,666,000
422/07 01:47SUYATmurni enam666,600
522/07 01:43PENIS07murni enam6,666,000
TOP BALAK
No.TanggalNamaPriceWin
122/07 01:52ASEP_MANbalak200,000
222/07 01:52BDOD88balak200,000
322/07 01:51WRDRBGEQHGbalak20,000
422/07 01:51BSK3balak200,000
522/07 01:51ORYDOLL46balak200,000
LATEST JACKPOT
No.TanggalNamaPriceWin
122/07 01:52SAPAT53murni kecil50,000
222/07 01:52UPLEX33murni kecil50,000
322/07 01:52BLENTUKmurni besar50,000
422/07 01:52ADOT1987murni besar5,000
522/07 01:52ASEP_MANbalak200,000
622/07 01:52ZAAKY66murni besar25,000
722/07 01:52ARGHANmurni besar50,000
822/07 01:52BDOD88balak200,000
922/07 01:51SKYN3T83murni besar50,000
1022/07 01:51PIYUAH46murni kecil50,000
1122/07 01:51KAMPLENK77murni kecil5,000
1222/07 01:51B33JO99murni kecil50,000
1322/07 01:51GADUN20murni kecil50,000
1422/07 01:51RETY12murni kecil50,000
1522/07 01:51WRDRBGEQHGbalak20,000
1622/07 01:51ROCKY08murni kecil5,000
1722/07 01:51HO2ZXKMV6Fmurni besar50,000
1822/07 01:51ZUWLA9EEAWmurni kecil50,000
1922/07 01:51KINGFUmurni kecil50,000
2022/07 01:51LANCA4Rmurni kecil50,000
2122/07 01:51ANTHYY13murni kecil5,000
2222/07 01:51CUMI40murni besar50,000
2322/07 01:51BSK3balak200,000
2422/07 01:51ORYDOLL46balak200,000
2522/07 01:51BSK3murni kecil50,000
2622/07 01:50YOGGIE00murni kecil50,000
2722/07 01:50ARIDIANQQmurni kecil25,000
2822/07 01:50HUMAN458murni kecil50,000
2922/07 01:50R4D3N092murni kecil50,000
3022/07 01:50SKY_DRAGONbalak100,000
3122/07 01:50KILIKILI86balak20,000
3222/07 01:50NAWARIEmurni kecil50,000
3322/07 01:50BOMB7272murni kecil50,000
3422/07 01:50GEDON44murni kecil5,000
3522/07 01:50YUPI_300murni kecil25,000
3622/07 01:50BOSIFUTmurni kecil50,000
3722/07 01:50SKYN3T83murni kecil50,000
3822/07 01:50DINASATI11murni kecil25,000
3922/07 01:50BCEXmurni kecil50,000
4022/07 01:50BCEXmurni kecil50,000
4122/07 01:50BCEXmurni kecil50,000
4222/07 01:50SPECIAL123murni kecil5,000
4322/07 01:49BELE007murni kecil5,000
4422/07 01:49NIKEVmurni enam6,666,000
4522/07 01:49XILLIENSmurni enam6,666,000
4622/07 01:49PBN325murni kecil50,000
4722/07 01:49F78CCF47murni kecil5,000
4822/07 01:49PBN325balak200,000
4922/07 01:49FSOCIETY77balak100,000
5022/07 01:49GRISENDAmurni besar5,000